Date String (YYYY-MM-DD hh:mm:ss) UTC,Instrument flags,Ambient pressure (hPa),Sample flow (lpm),Bypass flow (lpm),Sample temperature (°C),Ambient temperature (°C),ASC tube jacket temperature (°C),LED temperature (°C),Box temperature (°C),Sample RH (%),Span deviation,Mass concentration (μg/m³),Mass concentration (μg/m³),Mass concentration (μg/m³)
DateTimeUTC,F1_M11,P_M11,Q1_M11,Q2_M11,T1_M11,T2_M11,T3_M11,T4_M11,T5_M11,U1_M11,ZSPAN_M11,X0_M11,X2_M11,X1_M11
2022-03-08 01:00:00,,0826.1,5.00,0.00,21.9,21.3,00.0,30.9,23.7,08.2,0000.9,0009.75,0006.27,0006.01
2022-03-08 01:01:00,,0826.2,5.00,0.00,21.9,21.3,00.0,30.9,23.6,08.2,0001.1,0009.78,0006.28,0006.00
2022-03-08 01:02:00,,0826.2,5.00,0.00,21.9,21.2,00.0,30.9,23.6,08.2,0001.0,0009.86,0006.32,0006.01
2022-03-08 01:03:00,,0826.2,4.99,0.00,21.9,21.2,00.0,30.9,23.6,08.3,0001.0,0009.87,0006.33,0006.03
2022-03-08 01:04:00,,0826.2,5.00,0.00,21.9,21.2,00.0,30.9,23.6,08.3,-000.0,0009.86,0006.33,0006.02
2022-03-08 01:05:00,,0826.2,5.00,0.00,21.9,21.2,00.0,30.9,23.6,08.3,-000.3,0009.05,0006.32,0006.02
2022-03-08 01:06:00,,0826.2,5.00,0.00,21.9,21.2,00.0,30.9,23.6,08.3,-000.3,0009.13,0006.35,0006.04
2022-03-08 01:07:00,,0826.2,5.00,0.00,21.9,21.2,00.0,30.9,23.6,08.4,-000.3,0009.16,0006.36,0006.05
2022-03-08 01:08:00,,0826.2,5.00,0.00,21.8,21.2,00.0,30.9,23.6,08.5,-000.2,0009.24,0006.38,0006.06
2022-03-08 01:09:00,,0826.2,5.00,0.00,21.8,21.2,00.0,30.9,23.5,08.5,-000.9,0009.30,0006.41,0006.07
2022-03-08 01:10:00,,0826.2,5.00,0.00,21.8,21.2,00.0,30.9,23.5,08.6,-001.0,0009.30,0006.45,0006.10
2022-03-08 01:11:00,,0826.2,5.00,0.00,21.8,21.1,00.0,30.9,23.5,08.7,-001.1,0009.37,0006.49,0006.14
2022-03-08 01:12:00,,0826.3,5.00,0.00,21.8,21.1,00.0,30.9,23.5,08.7,-000.8,0009.37,0006.50,0006.17
2022-03-08 01:13:00,,0826.2,5.00,0.00,21.7,21.0,00.0,30.9,23.4,08.7,-000.7,0009.70,0006.53,0006.21
2022-03-08 01:14:00,,0826.2,5.00,0.00,21.7,21.0,00.0,30.8,23.4,08.6,-000.7,0009.98,0006.52,0006.22
2022-03-08 01:15:00,,0826.2,5.00,0.00,21.7,21.0,00.0,30.8,23.3,08.7,-000.5,0010.10,0006.55,0006.25
2022-03-08 01:16:00,,0826.2,4.99,0.00,21.6,20.9,00.0,30.8,23.3,08.8,-000.4,0010.07,0006.56,0006.26
2022-03-08 01:17:00,,0826.2,4.99,0.00,21.7,21.1,00.0,30.8,23.3,08.8,-000.6,0010.05,0006.57,0006.27
2022-03-08 01:18:00,,0826.3,5.00,0.00,21.8,21.7,00.0,30.8,23.5,08.9,-000.3,0010.14,0006.60,0006.27
2022-03-08 01:19:00,,0826.3,5.00,0.00,21.9,22.4,00.0,30.9,23.9,08.9,-000.1,0010.14,0006.64,0006.30
2022-03-08 01:20:00,,0826.3,5.00,0.00,22.1,22.9,00.0,30.9,24.1,09.0,0000.2,0010.21,0006.66,0006.32
2022-03-08 01:21:00,,0826.3,4.99,0.00,22.1,22.7,00.0,30.9,24.1,09.1,0000.4,0010.30,0006.70,0006.33
2022-03-08 01:22:00,,0826.3,5.00,0.00,22.1,22.4,00.0,31.0,24.0,09.1,0000.5,0010.42,0006.73,0006.35
2022-03-08 01:23:00,,0826.3,4.99,0.00,22.1,22.2,00.0,31.0,23.9,09.3,0000.4,0010.53,0006.79,0006.38
2022-03-08 01:24:00,,0826.3,5.00,0.00,22.0,22.0,00.0,31.0,23.8,09.4,0000.7,0011.23,0006.88,0006.40
2022-03-08 01:25:00,,0826.3,5.00,0.00,22.0,21.8,00.0,31.0,23.7,09.4,0000.8,0011.52,0006.97,0006.44
2022-03-08 01:26:00,,0826.4,5.01,0.00,22.0,21.6,00.0,31.0,23.7,09.4,0000.8,0011.70,0007.02,0006.48
2022-03-08 01:27:00,,0826.4,5.00,0.00,22.0,21.5,00.0,31.0,23.7,09.4,0000.8,0011.94,0007.10,0006.51
2022-03-08 01:28:00,,0826.4,5.00,0.00,22.0,21.5,00.0,31.0,23.7,09.4,0000.8,0012.10,0007.16,0006.55
2022-03-08 01:29:00,,0826.3,5.02,0.00,22.0,21.5,00.0,31.0,23.7,09.4,0000.8,0012.26,0007.21,0006.58
2022-03-08 01:30:00,,0826.4,5.00,0.00,22.0,21.4,00.0,31.0,23.7,09.4,0000.5,0012.57,0007.26,0006.61
2022-03-08 01:31:00,,0826.4,4.99,0.00,22.0,21.4,00.0,31.0,23.7,09.3,0000.7,0012.69,0007.32,0006.64
2022-03-08 01:32:00,,0826.3,5.00,0.00,22.0,21.4,00.0,31.0,23.7,09.2,0000.6,0012.76,0007.36,0006.67
2022-03-08 01:33:00,,0826.3,5.00,0.00,22.0,21.4,00.0,31.0,23.7,09.1,0000.8,0013.23,0007.38,0006.68
2022-03-08 01:34:00,,0826.4,5.01,0.00,21.9,21.3,00.0,31.0,23.7,09.0,0000.6,0013.50,0007.38,0006.69
2022-03-08 01:35:00,,0826.3,4.99,0.00,21.9,21.2,00.0,31.0,23.6,09.0,0000.7,0013.55,0007.38,0006.71
2022-03-08 01:36:00,,0826.3,5.01,0.00,21.9,21.2,00.0,31.0,23.5,09.0,0000.8,0012.98,0007.38,0006.72
2022-03-08 01:37:00,,0826.3,4.99,0.00,21.8,21.1,00.0,30.9,23.5,09.0,0000.5,0012.47,0007.37,0006.74
2022-03-08 01:38:00,,0826.2,5.00,0.00,21.8,21.0,00.0,30.9,23.4,09.0,0000.7,0012.40,0007.39,0006.75
2022-03-08 01:39:00,,0826.2,5.00,0.00,21.7,21.0,00.0,30.9,23.4,09.0,0000.8,0012.39,0007.42,0006.76
2022-03-08 01:40:00,,0826.2,5.02,0.00,21.7,20.9,00.0,30.9,23.3,09.1,0000.7,0012.69,0007.40,0006.77
2022-03-08 01:41:00,,0826.2,5.00,0.00,21.6,20.8,00.0,30.9,23.2,09.1,0001.1,0012.67,0007.39,0006.77
2022-03-08 01:42:00,,0826.2,4.99,0.00,21.6,20.8,00.0,30.8,23.2,09.1,0001.0,0012.83,0007.39,0006.76
2022-03-08 01:43:00,,0826.2,5.00,0.00,21.6,21.3,00.0,30.8,23.3,09.0,0000.9,0014.07,0007.39,0006.76
2022-03-08 01:44:00,,0826.2,4.99,0.00,21.8,22.0,00.0,30.9,23.6,09.0,0000.7,0013.82,0007.36,0006.76
2022-03-08 01:45:00,,0826.2,5.02,0.00,21.9,22.8,00.0,30.9,23.9,08.9,0001.1,0013.37,0007.37,0006.77
2022-03-08 01:46:00,,0826.2,4.98,0.00,22.1,22.9,00.0,30.9,24.1,08.8,0001.5,0012.81,0007.34,0006.76
2022-03-08 01:47:00,,0826.3,5.00,0.00,22.1,22.7,00.0,31.0,24.1,08.8,0001.2,0012.91,0007.31,0006.75
2022-03-08 01:48:00,,0826.2,5.00,0.00,22.2,22.5,00.0,31.0,24.0,08.8,0001.8,0013.08,0007.34,0006.75
2022-03-08 01:49:00,,0826.2,4.99,0.00,22.2,22.3,00.0,31.0,24.0,08.8,0001.7,0012.88,0007.32,0006.75
2022-03-08 01:50:00,,0826.2,5.01,0.00,22.1,22.1,00.0,31.0,24.0,08.8,0001.6,0012.95,0007.28,0006.74
2022-03-08 01:51:00,,0826.2,5.00,0.00,22.1,21.9,00.0,31.0,23.9,08.8,0001.2,0012.96,0007.29,0006.74
2022-03-08 01:52:00,,0826.2,4.98,0.00,22.1,21.8,00.0,31.0,23.9,08.9,0000.6,0012.58,0007.27,0006.73
2022-03-08 01:53:00,,0826.2,5.00,0.00,22.1,21.7,00.0,31.0,23.8,09.0,0000.7,0012.70,0007.21,0006.71
2022-03-08 01:54:00,,0826.2,5.00,0.00,22.1,21.6,00.0,31.0,23.8,09.1,0001.0,0011.59,0007.15,0006.66
2022-03-08 01:55:00,,0826.2,4.99,0.00,22.1,21.5,00.0,31.0,23.8,09.2,0001.0,0011.58,0007.15,0006.61
2022-03-08 01:56:00,,0826.3,5.00,0.00,22.0,21.5,00.0,31.0,23.8,09.2,0001.0,0011.54,0007.11,0006.55
2022-03-08 01:57:00,,0826.2,5.01,0.00,22.0,21.4,00.0,31.0,23.7,09.2,0000.5,0011.35,0007.04,0006.48
2022-03-08 01:58:00,,0826.2,5.01,0.00,22.0,21.4,00.0,31.0,23.7,09.2,0000.3,0011.12,0006.99,0006.43
2022-03-08 01:59:00,,0826.3,5.00,0.00,22.0,21.3,00.0,31.0,23.7,09.3,0000.0,0011.17,0006.91,0006.36
